Location: Mountain Grove
(34.0887°N, 86.6172°W)
Time: 21:51:07
(UTC+00:00)

Mugunghwa Rocket - Pass Details

Date: 14 July 2020
Orbit: 936 x 1372 km, 26.7° (Epoch: 08 August)

Event Time Altitude Azimuth Distance (km) Brightness Sun altitude
Rises 03:20:09 0° 249° (WSW) 3,612 7.2 -23.6°
Reaches altitude 10° 03:22:50 10° 243° (WSW) 2,698 6.4 -23.9°
Enters shadow 03:28:22 43° 187° (S) 1,391 4.4 -24.6°
